Regional Weather Roundup
Issued by NWS

Home | Current Version | Previous Version | Text Only | Print | Product List | Glossary On
Versions: 1 2 3 4 5 6 7 8 9 10 11 12 13 14 15 16 17 18 19 20 21 22 23 24 25 26 27 28 29 30 31 32 33 34 35 36 37 38 39 40 41 42 43 44 45 46 47 48 49 50
000
ASUS43 KTOP 261408
RWRKS

WEATHER ROUNDUP FOR KANSAS
NATIONAL WEATHER SERVICE GOODLAND KS
900 AM CDT SUN MAR 26 2017

NOTE:  "FAIR" INDICATES FEW OR NO CLOUDS BELOW 12,000 FEET WITH NO
SIGNIFICANT WEATHER AND/OR OBSTRUCTIONS TO VISIBILITY.

KSZ001>006-013>018-027>032-041>047-261500-
NORTHWEST KANSAS

CITY           SKY/WX    TMP DP  RH WIND       PRES   REMARKS
GOODLAND       FOG       37  37 100 NE10      29.81R VSB 1/4 WCI  30
HAYS             N/A     42  41  96 E9        29.87F FOG
HILL CITY      CLOUDY    41  41 100 E7        29.88S FOG
RUSSELL        CLOUDY    42  41  96 CALM      29.89R
$$

KSZ061>065-074>080-084>089-261500-
SOUTHWEST KANSAS

CITY           SKY/WX    TMP DP  RH WIND       PRES   REMARKS
DODGE CITY     FOG       39  39 100 E16G22    29.81F VSB 1/4 WCI  30
ELKHART          N/A     38  31  76 E6          N/A
GARDEN CITY    FOG       39  38  96 E18G26    29.78S VSB 1/4 WCI  30
GREAT BEND     CLOUDY    42  41  96 E10       29.88S
LIBERAL        CLOUDY    43  37  81 SE17G23   29.73S
PRATT          CLOUDY    39  38  97 E7        29.89R FOG
$$

KSZ066>073-081>083-090>101-261500-
SOUTHEAST KANSAS

CITY           SKY/WX    TMP DP  RH WIND       PRES   REMARKS
CHANUTE        CLOUDY    47  44  90 SW3       29.94R
COFFEYVILLE    CLOUDY    49  44  83 VRB5      29.95R
HUTCHINSON     CLOUDY    43  41  93 SE3       29.91R
MEDICINE LODGE   N/A     42  41  96 SE10      29.89R
NEWTON         FOG       42  41  96 CALM      29.92R VSB 1
PARSONS        CLOUDY    48  43  82 SW3       29.95R
WICHITA INTL   CLOUDY    44  43  96 S5        29.91S FOG
WICHITA JABRA  FOG       43  43 100 SE5       29.91R VSB 1
WICHITA MCCONL CLOUDY    44  43  97 SE6       29.91S
WINFIELD       CLOUDY    46  42  86 E6        29.92S
$$

KSZ007>012-019>026-033>040-048>060-102>105-261500-
NORTHEAST KANSAS

CITY           SKY/WX    TMP DP  RH WIND       PRES   REMARKS
CONCORDIA      CLOUDY    41  41 100 CALM      29.92S FOG
EMPORIA        CLOUDY    45  45 100 CALM      29.92R FOG
LAWRENCE       CLOUDY    45  42  89 W5        29.94R
MANHATTAN      CLOUDY    43  42  97 CALM      29.93R FOG
MARYSVILLE     CLOUDY    41  39  93 CALM      29.92S FOG
OLATHE IND     CLOUDY    45  40  82 W8        29.93R
OLATHE EXE     CLOUDY    44  42  93 W6        29.92R
SALINA         CLOUDY    45  42  89 CALM      29.94R
TOPEKA BILLARD CLOUDY    45  43  93 CALM      29.93R
TOPEKA FORBES  CLOUDY    45  43  93 W5        29.93R
$$




USA.gov is the U.S. government's official web portal to all federal, state and local government web resources and services.